Satellite: NOAA-11 Catalog number: 19531 Epoch time: 12186.75213840 Element set: 0981 Inclination: 098.7330 deg RA of node: 271.5421 deg Eccentricity: 0.0011251 Arg of perigee: 169.8902 deg Mean anomaly: 190.2505 deg Mean motion: 14.14971099 rev/day Decay rate: -2.63e-06 rev/day^2 Epoch rev: 22699 Checksum: 301
Satellite: NOAA-12 Catalog number: 21263 Epoch time: 12186.94595213 Element set: 0482 Inclination: 098.7277 deg RA of node: 208.5265 deg Eccentricity: 0.0014384 Arg of perigee: 146.1640 deg Mean anomaly: 214.0461 deg Mean motion: 14.25504788 rev/day Decay rate: 8.8e-07 rev/day^2 Epoch rev: 09908 Checksum: 312
Satellite: MET-3/5 Catalog number: 21655 Epoch time: 12186.84948614 Element set: 0449 Inclination: 082.5575 deg RA of node: 139.7117 deg Eccentricity: 0.0012087 Arg of perigee: 278.8523 deg Mean anomaly: 081.1230 deg Mean motion: 13.17040253 rev/day Decay rate: -1.73e-06 rev/day^2 Epoch rev: 00421 Checksum: 290
Satellite: MET-2/21 Catalog number: 22782 Epoch time: 12186.65573256 Element set: 0463 Inclination: 082.5457 deg RA of node: 018.6509 deg Eccentricity: 0.0024023 Arg of perigee: 102.4062 deg Mean anomaly: 257.9768 deg Mean motion: 13.83684577 rev/day Decay rate: 1.7e-07 rev/day^2 Epoch rev: 95158 Checksum: 325
Satellite: OKEAN-4 Catalog number: 23317 Epoch time: 12186.96939426 Element set: 0939 Inclination: 082.5387 deg RA of node: 014.5791 deg Eccentricity: 0.0019877 Arg of perigee: 295.9650 deg Mean anomaly: 063.9517 deg Mean motion: 14.83829516 rev/day Decay rate: 7.97e-06 rev/day^2 Epoch rev: 95744 Checksum: 375
Satellite: NOAA-14 Catalog number: 23455 Epoch time: 12186.95066548 Element set: 0965 Inclination: 098.8257 deg RA of node: 270.2262 deg Eccentricity: 0.0008549 Arg of perigee: 271.4042 deg Mean anomaly: 088.6148 deg Mean motion: 14.13906211 rev/day Decay rate: -8.0e-08 rev/day^2 Epoch rev: 90330 Checksum: 310
Satellite: NOAA-15 Catalog number: 25338 Epoch time: 12186.60951235 Element set: 0322 Inclination: 098.6902 deg RA of node: 173.3528 deg Eccentricity: 0.0011512 Arg of perigee: 061.1012 deg Mean anomaly: 299.1310 deg Mean motion: 14.25089302 rev/day Decay rate: 1.17e-06 rev/day^2 Epoch rev: 73533 Checksum: 266
Satellite: RESURS Catalog number: 25394 Epoch time: 12186.96430655 Element set: 0147 Inclination: 098.3210 deg RA of node: 174.2661 deg Eccentricity: 0.0001209 Arg of perigee: 142.5721 deg Mean anomaly: 217.5543 deg Mean motion: 14.24289755 rev/day Decay rate: -2.9e-07 rev/day^2 Epoch rev: 72693 Checksum: 298
Satellite: FENGYUN1 Catalog number: 25730 Epoch time: 12186.88860155 Element set: 0649 Inclination: 098.8472 deg RA of node: 145.5625 deg Eccentricity: 0.0019197 Arg of perigee: 317.6182 deg Mean anomaly: 042.3504 deg Mean motion: 14.09637100 rev/day Decay rate: 7.37e-06 rev/day^2 Epoch rev: 67710 Checksum: 313
Satellite: OKEAN-0 Catalog number: 25860 Epoch time: 12186.97553695 Element set: 0680 Inclination: 097.9371 deg RA of node: 149.2552 deg Eccentricity: 0.0001022 Arg of perigee: 103.1120 deg Mean anomaly: 257.0202 deg Mean motion: 14.74230415 rev/day Decay rate: 2.82e-06 rev/day^2 Epoch rev: 69719 Checksum: 282
Satellite: NOAA-16 Catalog number: 26536 Epoch time: 12186.60141215 Element set: 0808 Inclination: 099.0929 deg RA of node: 228.9927 deg Eccentricity: 0.0011044 Arg of perigee: 039.0476 deg Mean anomaly: 321.1501 deg Mean motion: 14.12755867 rev/day Decay rate: 3.14e-06 rev/day^2 Epoch rev: 60749 Checksum: 302
Satellite: NOAA-17 Catalog number: 27453 Epoch time: 12186.79405959 Element set: 0760 Inclination: 098.3351 deg RA of node: 212.9415 deg Eccentricity: 0.0012831 Arg of perigee: 104.4114 deg Mean anomaly: 255.8465 deg Mean motion: 14.24453318 rev/day Decay rate: 1.33e-06 rev/day^2 Epoch rev: 52126 Checksum: 294
Satellite: NOAA-18 Catalog number: 28654 Epoch time: 12186.78509328 Element set: 0240 Inclination: 099.0463 deg RA of node: 145.0198 deg Eccentricity: 0.0015212 Arg of perigee: 104.3976 deg Mean anomaly: 255.8877 deg Mean motion: 14.11670785 rev/day Decay rate: 4.11e-06 rev/day^2 Epoch rev: 36704 Checksum: 318
Satellite: NOAA-19 Catalog number: 33591 Epoch time: 12186.86776782 Element set: 0431 Inclination: 098.8643 deg RA of node: 126.4375 deg Eccentricity: 0.0013924 Arg of perigee: 335.4901 deg Mean anomaly: 024.5573 deg Mean motion: 14.11356274 rev/day Decay rate: 1.5e-07 rev/day^2 Epoch rev: 17550 Checksum: 313
/EX SB KEPS @ AMSAT $ORB12187.M Orbital Elements 12187.MISC
HR AMSAT ORBITAL ELEMENTS FOR MANNED AND MISCELLANEOUS SATELLITES FROM WA5QGD FORT WORTH,TX July 5, 2012 Send SUBSCRIBE KEPS/UNSUBSCRIBE KEPS to majordomo@amsat.org only BID: ORB12187.M TO ALL RADIO AMATEURS BT
Satellite: HUBBLE Catalog number: 20580 Epoch time: 12185.92876857 Element set: 0029 Inclination: 028.4714 deg RA of node: 033.9796 deg Eccentricity: 0.0003503 Arg of perigee: 231.8311 deg Mean anomaly: 128.2137 deg Mean motion: 15.02589516 rev/day Decay rate: 1.316e-05 rev/day^2 Epoch rev: 01725 Checksum: 288
Satellite: ISS Catalog number: 25544 Epoch time: 12186.88741898 Element set: 0867 Inclination: 051.6402 deg RA of node: 033.9136 deg Eccentricity: 0.0007946 Arg of perigee: 120.0314 deg Mean anomaly: 075.7168 deg Mean motion: 15.55917966 rev/day Decay rate: 9.202e-05 rev/day^2 Epoch rev: 78076 Checksum: 329
Satellite: CO-58 Catalog number: 28895 Epoch time: 12186.61994314 Element set: 0217 Inclination: 097.9109 deg RA of node: 052.1247 deg Eccentricity: 0.0019188 Arg of perigee: 096.8842 deg Mean anomaly: 263.4570 deg Mean motion: 14.60661880 rev/day Decay rate: 5.00e-06 rev/day^2 Epoch rev: 35620 Checksum: 328
Satellite: FALCON Catalog number: 30776 Epoch time: 12186.34128358 Element set: 0386 Inclination: 035.4303 deg RA of node: 172.0575 deg Eccentricity: 0.0001192 Arg of perigee: 179.7711 deg Mean anomaly: 180.3008 deg Mean motion: 15.07659319 rev/day Decay rate: 2.306e-05 rev/day^2 Epoch rev: 29284 Checksum: 293
Satellite: MAST Catalog number: 31126 Epoch time: 12186.97546447 Element set: 0500 Inclination: 097.8735 deg RA of node: 197.0351 deg Eccentricity: 0.0094888 Arg of perigee: 055.5812 deg Mean anomaly: 305.4311 deg Mean motion: 14.54184720 rev/day Decay rate: 5.75e-06 rev/day^2 Epoch rev: 27685 Checksum: 317
Satellite: CAPE1 Catalog number: 31130 Epoch time: 12186.54427652 Element set: 0508 Inclination: 097.8823 deg RA of node: 193.0012 deg Eccentricity: 0.0102684 Arg of perigee: 070.0254 deg Mean anomaly: 291.1964 deg Mean motion: 14.52969735 rev/day Decay rate: 7.23e-06 rev/day^2 Epoch rev: 27629 Checksum: 297
Satellite: COMPASS Catalog number: 32787 Epoch time: 12186.66699409 Element set: 0346 Inclination: 097.7987 deg RA of node: 247.6151 deg Eccentricity: 0.0015286 Arg of perigee: 008.2676 deg Mean anomaly: 351.8821 deg Mean motion: 14.84072418 rev/day Decay rate: 1.704e-05 rev/day^2 Epoch rev: 22640 Checksum: 332
Satellite: AAUSAT2 Catalog number: 32788 Epoch time: 12186.70020925 Element set: 0339 Inclination: 097.8025 deg RA of node: 248.0393 deg Eccentricity: 0.0015069 Arg of perigee: 009.5843 deg Mean anomaly: 350.5650 deg Mean motion: 14.84399808 rev/day Decay rate: 1.611e-05 rev/day^2 Epoch rev: 22643 Checksum: 310
Satellite: DO-64 Catalog number: 32789 Epoch time: 12186.72986800 Element set: 0354 Inclination: 097.8126 deg RA of node: 250.1567 deg Eccentricity: 0.0014442 Arg of perigee: 005.2868 deg Mean anomaly: 354.8505 deg Mean motion: 14.85933700 rev/day Decay rate: 2.755e-05 rev/day^2 Epoch rev: 22648 Checksum: 332
Satellite: CO-66 Catalog number: 32791 Epoch time: 12186.66354976 Element set: 0337 Inclination: 097.8003 deg RA of node: 247.3399 deg Eccentricity: 0.0015943 Arg of perigee: 007.6553 deg Mean anomaly: 352.4910 deg Mean motion: 14.83475926 rev/day Decay rate: 1.225e-05 rev/day^2 Epoch rev: 22633 Checksum: 331
Satellite: RS-30 Catalog number: 32953 Epoch time: 12186.75576287 Element set: 0929 Inclination: 082.5036 deg RA of node: 284.2138 deg Eccentricity: 0.0017467 Arg of perigee: 269.0731 deg Mean anomaly: 090.8348 deg Mean motion: 12.43025234 rev/day Decay rate: 1.0e-07 rev/day^2 Epoch rev: 18674 Checksum: 311
Satellite: TACSAT-3 Catalog number: 35001 Epoch time: 12121.72616188 Element set: 0001 Inclination: 040.4259 deg RA of node: 351.8840 deg Eccentricity: 0.0007146 Arg of perigee: 275.2650 deg Mean anomaly: 085.0693 deg Mean motion: 16.45157000 rev/day Decay rate: 1.5204951e-01 rev/day^2 Epoch rev: 16699 Checksum: 280
Satellite: PHARMSAT Catalog number: 35002 Epoch time: 12186.73174606 Element set: 0963 Inclination: 040.4559 deg RA of node: 314.4810 deg Eccentricity: 0.0011347 Arg of perigee: 010.8413 deg Mean anomaly: 349.2653 deg Mean motion: 15.90324729 rev/day Decay rate: 1.69294e-03 rev/day^2 Epoch rev: 17711 Checksum: 289
Satellite: METEOR-M Catalog number: 35865 Epoch time: 12186.88244664 Element set: 0559 Inclination: 098.6534 deg RA of node: 240.8755 deg Eccentricity: 0.0002884 Arg of perigee: 020.0691 deg Mean anomaly: 340.0599 deg Mean motion: 14.21864846 rev/day Decay rate: -3.4e-07 rev/day^2 Epoch rev: 14511 Checksum: 317
Satellite: RS-38 Catalog number: 35869 Epoch time: 12186.83061684 Element set: 0566 Inclination: 098.6491 deg RA of node: 240.8177 deg Eccentricity: 0.0004877 Arg of perigee: 011.7583 deg Mean anomaly: 348.3707 deg Mean motion: 14.22076416 rev/day Decay rate: -1.2e-07 rev/day^2 Epoch rev: 14512 Checksum: 323
Satellite: JUGNU Catalog number: 37839 Epoch time: 12186.55449561 Element set: 0181 Inclination: 019.9608 deg RA of node: 253.0128 deg Eccentricity: 0.0020313 Arg of perigee: 053.9810 deg Mean anomaly: 306.2457 deg Mean motion: 14.12064271 rev/day Decay rate: 6.19e-06 rev/day^2 Epoch rev: 03770 Checksum: 283
